Regional Weather Roundup
Issued by NWS Green Bay, WI

Home | Current Version | Previous Version | Text Only | Print | Product List | Glossary On
Versions: 1 2 3 4 5 6 7 8 9 10 11 12 13 14 15 16 17 18 19 20 21 22 23 24 25 26 27 28 29 30 31 32 33 34 35 36 37 38 39 40 41 42 43 44 45 46 47 48 49 50
000
ASUS43 KGRB 210110
RWRGRB

NORTH-CENTRAL AND NORTHEAST WISCONSIN REGIONAL WEATHER ROUNDUP
NATIONAL WEATHER SERVICE GREEN BAY WI
800 PM CDT SUN APR 20 2014

WIZ005-009-010>012-018-019-210200-
NORTH CENTRAL WISCONSIN

CITY           SKY/WX    TMP DP  RH WIND       PRES   REMARKS
IRONWOOD       CLEAR     55  27  33 N3        29.98R
MANITOWISH WTR CLEAR     55  34  45 NE3       30.01R
ARBOR VITAE    MOCLDY    57  46  68 CALM      30.01R
EAGLE RIVER    CLEAR     53  46  76 CALM      30.01R
LAND O LAKES   CLEAR     55  35  46 N5        30.02R
RHINELANDER    MOCLDY    54  49  83 SW6       30.01S
PHILLIPS       CLEAR     59  51  75 S7        29.99S
ANTIGO         CLOUDY    53  50  90 S3        30.02S
TOMAHAWK       CLOUDY    54  49  84 CALM      30.00F
MERRILL        CLOUDY    55  52  89 CALM      30.00S
$$

WIZ013-073-210200-
NORTHEAST WISCONSIN

CITY           SKY/WX    TMP DP  RH WIND       PRES   REMARKS
IRON MOUNTAIN  MOCLDY    54  49  83 S5        29.98S
MARINETTE      CLOUDY    50  46  87 SW5       30.01F
OCONTO         CLOUDY    50  48  92 CALM      30.02F
$$

WIZ017-030-035>037-045-210200-
CENTRAL WISCONSIN

CITY           SKY/WX    TMP DP  RH WIND       PRES   REMARKS
MEDFORD        CLOUDY    56  53  91 S3        30.00S
WAUSAU         CLOUDY    57  53  86 SE5       29.99F
MOSINEE        CLOUDY    55  54  94 SE3       30.01F
MARSHFIELD     CLOUDY    57  54  89 CALM      29.99F
WISC RAPIDS    CLOUDY    56  53  90 CALM      30.01F
STEVENS POINT  CLOUDY    55  52  89 SE3       30.01F
WAUPACA        CLOUDY    57  54  88 CALM      30.02S
SHAWANO        CLOUDY    49  46  88 CALM      30.03S
CLINTONVILLE   CLOUDY    55  54  94 CALM      30.02S
$$

WIZ038-039-048-051-210200-
FOX VALLEY

CITY           SKY/WX    TMP DP  RH WIND       PRES   REMARKS
NWS GREEN BAY  CLOUDY    56  53  90 CALM      30.02F
APPLETON       CLOUDY    55  50  82 E5        30.02F
OSHKOSH        CLOUDY    56  50  80 CALM      30.00F
FOND DU LAC    CLOUDY    56  49  77 CALM      30.00F
$$

WIZ022-050-052-210200-
EAST CENTRAL WISCONSIN

CITY           SKY/WX    TMP DP  RH WIND       PRES   REMARKS
STURGEON BAY   CLOUDY    48  39  71 S6        30.04F
MANITOWOC      LGT RAIN  44  39  82 E9        30.03F
SHEBOYGAN      CLOUDY    53  39  59 SE3       30.02F
$$

LMZ563-521-522-541>543-210200-
LAKESHORE

STATION/POSITION TIME  TEMP    WIND        PRES    VSBY  WAVE
                       AIR SEA DIR/SP/G                  HT/PER
                 (UTC) (F)     (DEG/KT/KT) (MB)    (MI)  (FT/S)
SHEBOYGAN LKSHOR 0100   51     120/  6/  6 1017.5F
KEWAUNEE LKSHORE 0100   40     160/  7/  7 1017.9S
TWO RIVERS CG    0000   40                   N/A       6   1
NORTHPORT PIER   0100   47     170/  4/  8 1016.6F
SISTER BAY LKSHO 0100   51     180/  8/ 10   N/A
STURGEON BAY CG  0000   40     180/  3     1018.8      6   2
MENOMINEE LKSHOR 0100   43     180/  8/ 10 1017.1S
$$



USA.gov is the U.S. government's official web portal to all federal, state and local government web resources and services.